sat.trackr.live / text

‹ back to catalog

STARLINK-5290

NORAD 54157 · 2022-141A

PAYLOAD ACTIVE UNKNOWN

§ Identity

Operator
Country
US
Launch date
2022-10-28
Launch site
AFWTR
Launch vehicle
Mass (kg)
RCS (m²)

Purposes: comms

External: N2YO · Heavens-Above · Gunter

§ Orbital elements

Epoch: 2026-09-20T22:00:03.000096Z

Period
93.93 min
Inclination
53.1611°
Eccentricity
0.0000935
Mean motion
15.33081326 rev/d
Perigee alt
466.0 km
Apogee alt
467.3 km
Semi-major
6,844.8 km
B*
1.4510e-3
RAAN
215.5075°
Arg perigee
109.9492°
Mean anomaly
190.6181°
Rev number
564

§ Raw data

STARLINK-52901 54157U 22141A   26263.91670139  .00046944  00000+0  14510-2 0  99962 54157  53.1611 215.5075 0000935 109.9492 190.6181 15.33081326  5640

JSON: /api/v1/satellites/54157 · /tle

For live sub-satellite position, see the globe view (requires WebGL).

§ Visibility from observer

Set your observer location to see the next 7 days of passes ≥ 10°. The values pass through the URL so the page stays shareable.

No JS? Fill the form by hand. The geolocation button needs JavaScript.